Location: Cran-Gévrier
(45.9039°N, 6.1012°E)
Time: 04:42:23
(UTC+00:00)

NOSS 0 Rocket - Pass Details

Date: 09 February 2023
Orbit: 935 x 954 km, 70.0° (Epoch: 29 March)

Event Time Altitude Azimuth Distance (km) Brightness Sun altitude
Rises 19:00:12 0° 208° (SSW) 3,609 7.3 -22.6°
Reaches altitude 10° 19:02:43 10° 209° (SSW) 2,670 6.6 -23.0°
Maximum altitude 19:08:57 84° 298° (WNW) 965 3.9 -24.1°
Enters shadow 19:13:27 20° 26° (NNE) 2,045 5.5 -24.9°
